Home > Weather > Ica > Past weeks

Flag for Peru Past Weather in Ica, Ica, Peru — Yesterday and Last 2 Weeks

Now
66 °F

Partly sunny.


Feels Like: 66 °F
Forecast: 60 / 89 °F
Wind: 2 mph from North

Location: Pisco Airport

Current Time: May 24, 2016 at 8:59:56 AM

Latest Report: May 24, 2016 at 8:00 AM


Visibility: 4 mi

Pressure: 29.98 "Hg

Humidity: 83%

Dew Point: 61 °F

Location of IcaLocation

Past Weather in Ica — Graph

°F

Ica Temperature Yesterday

Maximum temperature yesterday: 68 °F (at 2:00 PM)
Minimum temperature yesterday: 61 °F (at 12:00 AM)
Average temperature yesterday: 66 °F

High & Low Weather Summary for the Past Weeks

 TemperatureHumidityPressure
High79 °F (May 15, 1:00 PM)100% (May 14, 6:00 AM)32.52 "Hg (May 14, 6:00 AM)
Low57 °F (May 22, 4:00 AM)54% (May 15, 1:00 PM)29.80 "Hg (May 13, 3:00 PM)
Average67 °F83%29.92 "Hg
* Reported May 9 7:00 AM — May 24 7:00 AM, Ica, Weather by CustomWeather, © 2016

Note: Actual official high and low records may vary slightly from our data, if they occured in-between our weather recording intervals... More about our weather records

Advertising

Ica Weather History for the Previous 24 Hours

Scroll right to see more
 ConditionsComfort  
Time TempWeatherWind HumidityBarometerVisibility
7:00 AM
Tue, May 24
64 °FFog.2 mph83%29.95 "Hg3 mi
6:00 AM63 °FPassing clouds.2 mph88%29.92 "Hg5 mi
5:00 AM64 °FPassing clouds.No wind83%29.92 "Hg5 mi
4:00 AM64 °FPassing clouds.3 mph83%29.89 "Hg5 mi
3:00 AM64 °FPassing clouds.5 mph83%29.92 "Hg5 mi
2:00 AM63 °FPassing clouds.2 mph88%29.92 "Hg5 mi
1:00 AM66 °FPassing clouds.8 mph83%29.92 "Hg5 mi
12:00 AM66 °FPassing clouds.8 mph83%29.92 "Hg5 mi
11:00 PM
Mon, May 23
64 °FPassing clouds.3 mph83%29.95 "Hg5 mi
10:00 PM66 °FPassing clouds.3 mph83%29.95 "Hg5 mi
9:00 PM66 °FPassing clouds.5 mph83%29.95 "Hg4 mi
8:00 PM66 °FPassing clouds.8 mph83%29.95 "Hg4 mi
7:00 PM68 °FPassing clouds.3 mph83%29.92 "Hg4 mi
6:00 PM68 °FFog.6 mph83%29.92 "Hg3 mi
5:00 PM68 °FPassing clouds.7 mph83%29.89 "Hg4 mi
4:00 PM68 °FPassing clouds.7 mph83%29.89 "Hg5 mi
3:00 PM68 °FPartly sunny.7 mph83%29.89 "Hg4 mi
2:00 PM68 °FOvercast.7 mph83%29.92 "Hg4 mi
1:00 PM66 °FMostly cloudy.7 mph88%29.95 "Hg5 mi
12:00 PM66 °FFog.7 mph88%29.95 "Hg3 mi
11:00 AM66 °FFog.5 mph88%29.98 "Hg1 mi
10:00 AM66 °FDrizzle. Fog.3 mph88%30.01 "Hg1 mi
9:00 AM66 °FDrizzle. Fog.3 mph88%30.01 "Hg1 mi
8:00 AM64 °FFog.3 mph94%29.95 "Hg2 mi
Weather by CustomWeather, © 2016

See weather overviewHow to use our weather pages